www.pogodaiklimat.ru

Погода и климат >> Архив погоды >> Великобритания >> Глазго


АРХИВ ПОГОДЫ в Глазго

Время (UTC), дата Ветер
(напр.,м/с)
 
Видим.   Явления Облачность Т
(С)
Тd
(С)
f
(%)
Тe
(С)
Тes
(С)
Комфортность P
(гПа)
Po
(гПа)
Тmin
(С)
Tmax
(С)
R
(мм)
R24
(мм)
S
(см)
07 19.06 Ю 2 12 км н/о +11.7 +10.5 92 +10 +10 по сезону 1007.7 1000.6
08 19.06 Ю 3 18 км н/о +13.2 +10.4 83 +12 +12 по сезону 1007.2 1000.2
09 19.06 Ю 4 50 км н/о +14.7 +10.8 77 +14 +14 по сезону 1006.8 999.8
10 19.06 ЮЗ 5 24 км н/о +16.0 +8.2 60 +15 +15 тепло 1006.7 999.7
11 19.06 З 4 40 км н/о +15.5 +9.0 65 +15 +15 по сезону 1006.5 999.5
12 19.06 З 4 40 км н/о +15.6 +9.3 66 +15 +15 по сезону 1006.5 999.5
13 19.06 З 4 40 км н/о +14.5 +9.2 70 +13 +13 по сезону 1006.8 999.8
14 19.06 ЮЗ 5 50 км н/о +15.2 +9.1 67 +14 +14 по сезону 1006.5 999.5
15 19.06 З 4 40 км н/о +16.9 +9.4 61 +16 +16 по сезону 1006.1 999.1
16 19.06 ЮЗ 4 45 км н/о +16.2 +9.9 66 +15 +15 тепло 1005.8 998.8
17 19.06 ЮЗ 4 45 км н/о +14.5 +9.3 71 +13 +13 по сезону 1005.7 998.7
18 19.06 З 4 40 км н/о +13.5 +9.4 76 +12 +12 прохладно 1005.8 998.8 +17.4
19 19.06 ЮЗ 2 9000 м ливневой дождь н/о +11.8 +10.1 89 +11 +11 тепло 1006.0 998.9
20 19.06 ЮВ 1 45 км в посл. час дождь н/о +11.7 +10.7 94 +12 +12 по сезону 1005.9 998.8
21 19.06 ЮВ 1 29 км слаб. морось с дождем н/о +11.3 +10.5 95 +11 +11 по сезону 1005.9 998.9
22 19.06 Ю 1 50 км в посл. час дождь н/о +10.9 +10.1 95 +11 +11 тепло 1005.6 998.5
23 19.06 Ю 2 4700 м ливневой дождь н/о +10.9 +10.4 97 +10 +10 тепло 1005.3 998.2
00 20.06 СЗ 2 6000 м дождь н/о +9.7 +9.0 95 +8 +8 по сезону 1005.3 998.2 5
01 20.06 СЗ 3 21 км дождь н/о +9.5 +8.7 95 +7 +7 по сезону 1005.2 998.0
02 20.06 З 3 40 км слаб. дождь н/о +9.0 +8.0 93 +6 +6 по сезону 1005.3 998.2
03 20.06 З 2 30 км в посл. час дождь н/о +8.9 +8.2 95 +7 +7 по сезону 1005.3 998.2
04 20.06 З 1 25 км в посл. час дождь н/о +8.6 +8.0 96 +8 +8 тепло 1005.3 998.1
05 20.06 З 5 35 км в посл. час дождь н/о +9.2 +8.1 93 +6 +6 по сезону 1005.3 998.2
06 20.06 З 3 40 км н/о +9.3 +8.1 92 +7 +7 прохладно 1005.6 998.4 +8.6 8
07 20.06 З 3 30 км в посл. час дождь н/о +9.6 +9.0 96 +7 +7 по сезону 1005.9 998.7
08 20.06 З 6 30 км н/о +10.7 +8.1 84 +8 +8 прохладно 1006.0 998.9
09 20.06 З 7 23 км в посл. час дождь н/о +11.6 +7.8 77 +8 +8 прохладно 1006.1 999.0
10 20.06 З 7
{14}
4700 м слаб. морось с дождем н/о +11.0 +8.2 83 +8 +8 прохладно 1006.5 999.4
11 20.06 З 6 9000 м в посл. час дождь н/о +12.7 +8.8 77 +10 +10 прохладно 1006.8 999.7
12 20.06 З 7 28 км в посл. час дождь н/о +13.9 +9.1 73 +12 +12 прохладно 1007.2 1000.1 2
13 20.06 З 6 22 км н/о +12.2 +7.8 74 +10 +10 прохладно 1007.7 1000.6
14 20.06 З 7 35 км в посл. час дождь н/о +13.6 +8.9 73 +11 +11 прохладно 1008.0 1001.0
15 20.06 З 6 35 км в посл. час дождь н/о +13.4 +9.3 76 +11 +11 прохладно 1008.4 1001.3
16 20.06 СЗ 7 19 км слаб. морось с дождем н/о +12.0 +8.1 77 +9 +9 прохладно 1008.9 1001.8
17 20.06 З 6 45 км в посл. час дождь н/о +12.7 +6.9 68 +10 +10 прохладно 1009.0 1001.9
18 20.06 З 6 29 км н/о +12.6 +7.6 72 +10 +10 прохладно 1009.4 1002.3 +15.0 2
19 20.06 З 5 40 км н/о +12.4 +7.1 70 +10 +10 по сезону 1009.9 1002.8
20 20.06 ЮЗ 3 45 км н/о +11.2 +7.1 76 +9 +9 по сезону 1010.3 1003.2
21 20.06 З 2 40 км н/о +10.0 +6.8 80 +8 +8 прохладно 1010.8 1003.6
22 20.06 З 3 40 км в посл. час дождь н/о +9.3 +7.2 87 +7 +7 по сезону 1011.2 1004.0
23 20.06 З 3 30 км слаб. ливневой дождь н/о +9.1 +7.6 90 +7 +7 по сезону 1011.6 1004.4
00 21.06 ЮЗ 2 12 км слаб. ливневой дождь н/о +8.7 +7.8 94 +7 +7 по сезону 1011.8 1004.6 0.4
01 21.06 ЮЗ 3 35 км в посл. час дождь н/о +8.8 +7.6 92 +6 +6 по сезону 1011.8 1004.6
02 21.06 З 3 30 км в посл. час дождь н/о +8.7 +7.2 90 +6 +6 по сезону 1012.0 1004.8
03 21.06 З 3 40 км н/о +9.0 +7.1 88 +7 +7 прохладно 1012.4 1005.2
04 21.06 З 4 16 км слаб. ливневой дождь н/о +8.9 +7.1 88 +6 +6 по сезону 1012.7 1005.5
05 21.06 З 1 35 км в посл. час дождь н/о +8.7 +7.1 90 +8 +8 по сезону 1013.2 1006.0
06 21.06 З 3 50 км н/о +9.8 +7.3 84 +8 +8 по сезону 1013.7 1006.5 +8.5 0.6
07 21.06 З 5 19 км н/о +11.4 +8.0 80 +9 +9 по сезону 1014.3 1007.2
08 21.06 З 6 40 км в посл. час дождь н/о +12.3 +8.1 76 +10 +10 по сезону 1014.9 1007.8
09 21.06 З 5 24 км н/о +13.3 +8.4 72 +11 +11 по сезону 1015.2 1008.1
10 21.06 СЗ 5 40 км н/о +12.7 +7.4 70 +11 +11 по сезону 1015.6 1008.5
11 21.06 СЗ 6 35 км н/о +12.9 +6.5 65 +11 +11 прохладно 1016.3 1009.2
12 21.06 СЗ 5 35 км н/о +13.7 +7.5 66 +12 +12 прохладно 1016.9 1009.8 0.0
13 21.06 З 5 30 км н/о +15.9 +7.3 57 +15 +15 тепло 1017.5 1010.5
14 21.06 СЗ 6 30 км н/о +14.6 +6.5 58 +13 +13 по сезону 1018.1 1011.0
15 21.06 СЗ 5 40 км н/о +14.1 +5.9 58 +12 +12 прохладно 1018.5 1011.4
16 21.06 СЗ 6 40 км н/о +13.8 +5.8 58 +12 +12 по сезону 1018.8 1011.6
17 21.06 СЗ 5 35 км н/о +14.3 +7.5 64 +13 +13 по сезону 1019.2 1012.1
18 21.06 СЗ 4 40 км н/о +13.3 +6.1 62 +12 +12 прохладно 1019.4 1012.2 +17.0 0.0
19 21.06 З 3 35 км н/о +13.7 +6.1 60 +13 +13 тепло 1019.9 1012.8
20 21.06 СЗ 3 35 км н/о +13.1 +6.2 63 +12 +12 по сезону 1020.3 1013.1
21 21.06 З 2 45 км н/о +9.9 +5.1 72 +9 +9 прохладно 1020.6 1013.4
22 21.06 З 1 45 км н/о +8.9 +4.9 76 +8 +8 тепло 1020.9 1013.6
23 21.06 Ю 1 50 км н/о +8.6 +5.8 83 +8 +8 по сезону 1021.4 1014.1
00 22.06 В 1 40 км н/о +8.9 +6.8 87 +8 +8 по сезону 1021.2 1013.9
01 22.06 ЮВ 1 30 км н/о +9.5 +7.8 89 +9 +9 тепло 1021.3 1014.1
02 22.06 ЮВ 2 35 км н/о +9.3 +7.7 90 +8 +8 по сезону 1021.3 1014.0
03 22.06 Ю 1 35 км н/о +9.0 +7.6 91 +8 +8 по сезону 1021.0 1013.7
04 22.06 ЮВ 2 35 км н/о +8.7 +7.1 90 +7 +7 по сезону 1020.9 1013.7
05 22.06 ЮЗ 1 30 км н/о +8.6 +6.7 88 +9 +9 по сезону 1020.8 1013.6
06 22.06 Ю 1 40 км н/о +10.6 +8.1 85 +10 +10 по сезону 1021.0 1013.8 +7.6
07 22.06 ЮВ 2 40 км н/о +12.4 +7.8 74 +12 +12 тепло 1021.0 1013.8
08 22.06 Ю 3 25 км н/о +14.2 +8.1 67 +14 +14 тепло 1021.0 1013.9
09 22.06 ЮЗ 5 40 км н/о +15.3 +7.4 59 +14 +14 по сезону 1020.8 1013.7
10 22.06 ЮЗ 4 50 км н/о +14.8 +7.5 62 +14 +14 по сезону 1021.0 1013.9
11 22.06 ЮЗ 4 35 км н/о +16.7 +8.0 56 +16 +16 тепло 1020.8 1013.7
12 22.06 ЮЗ 3 50 км н/о +16.0 +7.1 55 +16 +16 по сезону 1020.8 1013.7
13 22.06 ЮЗ 3 28 км н/о +17.4 +8.3 55 +18 +18 тепло 1020.6 1013.6
14 22.06 ЮЗ 3 30 км н/о +18.0 +6.0 45 +18 +18 тепло 1020.4 1013.4
15 22.06 З 2 35 км н/о +19.8 +6.9 43 +21 +21 комфорт 1020.0 1013.0
16 22.06 ЮЗ 2 35 км н/о +18.9 +7.0 46 +20 +20 тепло 1019.7 1012.7
17 22.06 Ю 2 35 км н/о +17.4 +8.7 57 +18 +18 тепло 1019.5 1012.5
18 22.06 В 1 40 км н/о +17.9 +7.4 50 +19 +19 тепло 1019.4 1012.4 +20.1
19 22.06 СВ 2 45 км н/о +17.0 +8.3 57 +18 +18 тепло 1019.4 1012.4
20 22.06 СВ 1 50 км н/о +15.6 +8.2 61 +16 +16 тепло 1019.5 1012.4
21 22.06 С 2 50 км н/о +12.7 +7.3 70 +12 +12 по сезону 1019.8 1012.7
22 22.06 С 2 50 км н/о +11.4 +7.2 75 +11 +11 тепло 1020.2 1013.0
23 22.06 В 1 50 км н/о +12.1 +7.4 73 +13 +13 тепло 1020.0 1012.8
00 23.06 ЮЗ 1 45 км н/о +11.5 +7.2 75 +11 +11 по сезону 1020.0 1012.8
01 23.06 С 1 50 км н/о +10.6 +7.8 83 +11 +11 тепло 1020.0 1012.8
02 23.06 СЗ 1 50 км н/о +10.5 +8.3 86 +10 +10 по сезону 1019.9 1012.7
03 23.06 СЗ 2 40 км н/о +10.6 +8.8 89 +9 +9 по сезону 1019.9 1012.7
04 23.06 СЗ 2 45 км н/о +10.6 +9.0 90 +9 +9 тепло 1019.8 1012.6
05 23.06 С 2 35 км н/о +11.1 +9.6 90 +10 +10 по сезону 1019.7 1012.5
06 23.06 Ю 1 26 км н/о +12.6 +9.7 82 +13 +13 тепло 1020.0 1012.9 +10.1
07 23.06 штиль 0 40 км н/о +13.2 +10.2 82 +13 +13 тепло 1020.4 1013.2
08 23.06 В 3 30 км н/о +14.7 +11.5 81 +14 +14 тепло 1020.5 1013.4
09 23.06 В 4 11 км н/о +14.8 +11.6 81 +14 +14 по сезону 1020.6 1013.5
10 23.06 В 4 30 км н/о +16.6 +12.3 76 +16 +16 тепло 1020.6 1013.6
11 23.06 В 4 28 км н/о +18.8 +12.6 67 +20 +20 тепло 1020.2 1013.2
12 23.06 В 4 18 км н/о +20.2 +13.5 65 +22 +22 комфорт 1019.9 1012.9
13 23.06 В 4 29 км н/о +21.1 +13.8 63 +24 +24 комфорт 1019.3 1012.3
14 23.06 В 6 25 км н/о +22.2 +12.4 54 +25 +25 комфорт 1018.9 1011.9
15 23.06 В 7 30 км н/о +21.2 +12.9 59 +23 +23 комфорт 1018.9 1012.0
16 23.06 В 8 20 км в посл. час дождь н/о +20.8 +11.6 56 +23 +23 комфорт 1018.8 1011.8
17 23.06 ЮВ 7
{13}
29 км н/о +20.1 +8.2 46 +21 +21 комфорт 1019.0 1012.0
18 23.06 В 7 40 км н/о +18.8 +8.3 50 +19 +19 тепло 1019.6 1012.6 +22.6 0.0
19 23.06 В 7
{13}
40 км н/о +17.5 +6.2 47 +17 +17 тепло 1020.0 1012.9
20 23.06 В 7 45 км н/о +15.6 +6.5 55 +14 +14 тепло 1020.0 1012.9
21 23.06 В 5 45 км н/о +14.4 +7.5 63 +13 +13 по сезону 1020.6 1013.5
22 23.06 В 6 30 км в посл. час дождь н/о +13.2 +9.6 79 +11 +11 тепло 1021.3 1014.2
23 23.06 В 8 40 км в посл. час дождь н/о +12.9 +10.0 83 +10 +10 тепло 1021.2 1014.0
00 24.06 В 6 40 км н/о +12.7 +10.0 84 +10 +10 по сезону 1021.0 1013.9 0.0
01 24.06 В 5 40 км н/о +12.8 +9.4 80 +11 +11 тепло 1020.7 1013.5
02 24.06 В 3 9000 м ливневой дождь н/о +12.4 +10.6 89 +11 +11 тепло 1020.3 1013.1
03 24.06 В 3 9000 м дождь н/о +12.2 +11.2 94 +10 +10 по сезону 1020.0 1012.8
04 24.06 ЮВ 2 19 км слаб. дождь н/о +12.2 +11.2 94 +11 +11 тепло 1019.6 1012.4
05 24.06 В 1 40 км слаб. ливневой дождь н/о +12.4 +11.3 93 +12 +12 тепло 1018.6 1011.4
06 24.06 В 2 40 км в посл. час дождь н/о +12.9 +11.5 91 +12 +12 по сезону 1018.7 1011.6 +12.1 3
07 24.06 В 2 45 км н/о +13.2 +12.0 92 +12 +12 тепло 1018.3 1011.1
08 24.06 В 3 50 км н/о +13.3 +12.1 92 +12 +12 по сезону 1018.4 1011.3
09 24.06 В 4 45 км н/о +13.2 +12.2 94 +11 +11 по сезону 1018.3 1011.2
10 24.06 В 5 30 км н/о +13.4 +12.0 91 +11 +11 прохладно 1018.9 1011.8
11 24.06 В 3 40 км в посл. час дождь н/о +14.0 +12.2 89 +13 +13 по сезону 1018.5 1011.4
12 24.06 В 2 50 км н/о +14.7 +12.5 87 +14 +14 по сезону 1018.4 1011.3 0.0
13 24.06 В 2 50 км н/о +14.9 +12.7 87 +15 +15 тепло 1018.5 1011.4
14 24.06 ЮВ 4 50 км слаб. ливневой дождь н/о +14.4 +12.8 90 +13 +13 по сезону 1018.6 1011.5
15 24.06 ЮВ 1 29 км слаб. дождь н/о +14.4 +13.3 93 +15 +15 по сезону 1018.5 1011.4
16 24.06 ЮВ 1 45 км в посл. час дождь н/о +14.6 +13.3 92 +15 +15 тепло 1018.4 1011.3
17 24.06 СВ 2 45 км н/о +14.8 +13.1 90 +15 +15 по сезону 1018.4 1011.3
18 24.06 ЮЗ 1 40 км н/о +15.4 +13.6 89 +16 +16 по сезону 1018.6 1011.5 +15.5 0.6
19 24.06 ЮВ 3 50 км в посл. час дождь н/о +15.1 +13.4 90 +15 +15 тепло 1019.0 1011.9
20 24.06 ЮВ 2 8000 м в посл. час дождь н/о +14.2 +13.3 94 +14 +14 тепло 1019.3 1012.2
21 24.06 В 2 3000 м ливневой дождь н/о +13.9 +13.3 96 +13 +13 по сезону 1020.1 1013.0
22 24.06 В 1 4200 м в посл. час дождь н/о +13.7 +13.1 96 +14 +14 тепло 1020.2 1013.1
23 24.06 В 1 5000 м в посл. час дождь н/о +13.7 +13.2 97 +14 +14 тепло 1020.4 1013.3
00 25.06 В 1 1900 м дымка н/о +13.7 +13.3 97 +14 +14 тепло 1020.8 1013.6 0.6
01 25.06 В 2 4900 м слаб. морось с дождем н/о +13.6 +13.2 97 +13 +13 тепло 1020.8 1013.7
02 25.06 В 1 4400 м в посл. час дождь н/о +13.5 +13.0 97 +14 +14 тепло 1020.6 1013.5
03 25.06 СЗ 1 2800 м дымка н/о +13.4 +13.0 97 +13 +13 тепло 1020.8 1013.6
04 25.06 С 1 3600 м дымка н/о +13.5 +13.1 97 +14 +14 тепло 1020.8 1013.6
05 25.06 С 2 1400 м морось с дождем н/о +13.6 +13.3 98 +13 +13 тепло 1021.2 1014.0
06 25.06 Ю 1 1500 м в посл. час дождь н/о +14.1 +13.9 99 +14 +14 тепло 1021.8 1014.6 +13.4 1
07 25.06 В 3 14 км н/о +16.3 +14.8 91 +16 +16 тепло 1022.3 1015.2
08 25.06 В 3 22 км н/о +17.2 +14.8 86 +17 +17 тепло 1022.5 1015.4
09 25.06 В 3 50 км н/о +16.8 +13.2 79 +17 +17 тепло 1022.6 1015.5
10 25.06 В 4 30 км н/о +19.8 +14.5 71 +22 +22 комфорт 1022.9 1015.9
11 25.06 В 4 30 км н/о +17.9 +11.8 67 +18 +18 тепло 1023.1 1016.0
12 25.06 В 4 40 км н/о +18.8 +12.8 68 +20 +20 тепло 1023.7 1016.7
13 25.06 В 5 45 км н/о +18.5 +12.5 68 +19 +19 тепло 1024.1 1017.1
14 25.06 ЮВ 6 22 км н/о +18.4 +12.7 69 +18 +18 тепло 1024.5 1017.4
15 25.06 В 4 40 км н/о +18.4 +12.8 70 +19 +19 тепло 1024.8 1017.8
16 25.06 ЮВ 4 30 км н/о +17.6 +12.8 73 +17 +17 тепло 1025.1 1018.0
17 25.06 В 4 28 км н/о +17.8 +12.9 73 +18 +18 тепло 1025.3 1018.3
18 25.06 В 4 40 км н/о +17.2 +12.7 75 +17 +17 тепло 1025.7 1018.6 +19.9
19 25.06 В 5 45 км н/о +15.9 +11.9 77 +15 +15 тепло 1026.3 1019.2
20 25.06 В 5 50 км н/о +14.8 +11.5 81 +13 +13 тепло 1027.0 1019.9
21 25.06 В 3 35 км н/о +14.1 +11.2 83 +13 +13 по сезону 1027.9 1020.8
22 25.06 В 4 35 км н/о +13.3 +11.1 87 +12 +12 тепло 1028.4 1021.2
23 25.06 В 2 30 км н/о +12.7 +10.6 87 +12 +12 тепло 1028.9 1021.7
00 26.06 В 3 30 км н/о +12.6 +10.4 86 +11 +11 по сезону 1029.3 1022.1
01 26.06 В 2 27 км н/о +12.0 +10.3 89 +11 +11 тепло 1029.1 1021.9
02 26.06 В 4 28 км н/о +11.8 +9.7 87 +10 +10 по сезону 1029.5 1022.2
03 26.06 В 2 18 км н/о +11.7 +9.5 86 +11 +11 по сезону 1029.7 1022.5
04 26.06 В 2 18 км н/о +11.5 +9.3 86 +11 +11 тепло 1030.1 1022.9
05 26.06 ЮВ 2 22 км н/о +11.5 +9.4 87 +10 +10 по сезону 1030.4 1023.1
06 26.06 В 3 22 км н/о +11.7 +9.3 85 +10 +10 по сезону 1030.7 1023.4 +11.4
07 26.06 В 2 30 км н/о +12.3 +9.6 84 +11 +11 тепло 1031.2 1024.0

 

Местоположение метеостанции Глазго (Великобритания): широта 55.90 долгота -4.53 высота над уровнем моря 59 м.

В архиве по умолчанию представлена погода в Глазго за последнюю неделю. Архивные данные за месяц целиком и за предыдущие месяцы, начиная с января 2011 года, Вы можете получить, выбрав интересующий диапазон дат из раскрывающегося списка и нажав кнопку "Ввод!".


*Определитесь, кто Вы:
робот инопланетянин человек

Внимание! Время в таблицах - всемирное. Для получения местного времени необходимо прибавить поправку, которая равна 0 ч.

Смотрите также архив погоды в соседних городах и на ближайших метеорологических станциях:

Погода в Прествике (Великобритания) (42 км)
Погода в Друмалбине (Великобритания) (59 км)
Погода в Гленогле (Великобритания) (59 км)
Погода в Страталлане (Великобритания) (68 км)
Погода в Эдинбурге (Великобритания) (74 км)
Погода в Макрайханише (Великобритания) (90 км)
Погода в Эскдейлмьюире (Великобритания) (106 км)
Погода на Горе Аонах Мор (Великобритания) (106 км)
Погода на Станции Tulloch Bridge (Великобритания) (108 км)
Погода в Порт-Эллене (Великобритания) (110 км)

Пояснения к столбцам:

Ветер - указаны скорость ветра в м/с - средняя за 10 мин, порывы в срок и между сроками (в фигурных скобках) и направление, откуда дует ветер: С - северный, СВ - северо-восточный, В - восточный, ЮВ - юго-восточный, Ю - южный, ЮЗ - юго-западный, З - западный, СЗ - северо-западный.
Видимость - горизонтальная дальность видимости в метрах или километрах. При видимости от 1 до 10 км при отсутствии осадков обычно наблюдается дымка, при ухудшении видимости до 1 км и менее - туман. В сухую погоду видимость может ухудшаться дымом, пылью или мглою.
Явления - указаны атмосферные явления, наблюдавшиеся в срок или в последний час перед сроком; фигурными скобками обозначены явления, наблюдавшиеся между сроками (за 1-3 часа до срока); квадратными скобками обозначены град или гололедные отложения с указанием их диаметра в мм.
Облачность - указаны через наклонную черту общая и нижняя облачность в баллах и высота нижней границы облаков в метрах; квадратными скобками обозначены формы облаков: Ci - перистые, Cs - перисто-слоистые, Cc - перисто-кучевые, Ac - высококучевые, As - высокослоистые, Sc - слоисто-кучевые, Ns - слоисто-дождевые, Cu - кучевые, Cb - кучево-дождевые. Подробнее классификацию облаков см. в Атласе облаков (PDF).
T - Температура воздуха - температура, измеренная на высоте 2 м над землей.
Td - Температура точки росы - температура, при понижении до которой содержащийся в воздухе водяной пар достигнет насыщения.
f - Относительная влажность воздуха - влажноcть воздуха, измеренная на высоте 2 м над землей.
Te - Эффективная температура - температура, которую ощущает одетый по сезону человек в тени. Характеристика душности погоды. При расчете учитывается влияние влажности воздуха и скорости ветра на теплоощущения человека.
Tes - Эффективная температура на солнце - температура, которую ощущает человек, с поправкой на солнечный нагрев. Характеристика знойности погоды. Зависит от высоты солнца над горизонтом, облачности и скорости ветра. Ночью, в пасмурную погоду, а также при ветре 12 м/с и более поправка равна нулю.
P - Атмосферное давление - приведенное к уровню моря атмосферное давление.
Po - Атмосферное давление - измеренное на уровне метеостанции атмосферное давление.
Tmin - Минимальная температура - минимум температуры воздуха на высоте 2 м над землей.
Tmax - Максимальная температура - максимум температуры воздуха на высоте 2 м над землей.
R - Количество осадков - Количество выпавших осадков за период времени, мм. При наведении курсора мыши на число - период времени, за который выпало указанное количество осадков.
R24 - Количество осадков - Количество выпавших осадков за 24 часа, мм.
S - Снежный покров - Высота снежного покрова, см. При наведении курсора мыши на число - состояние снежного покрова и степень покрытия местности в баллах.